Date String (YYYY-MM-DD hh:mm:ss) UTC,Instrument flags,Ambient pressure (hPa),Sample flow (lpm),Bypass flow (lpm),Sample temperature (°C),Ambient temperature (°C),ASC tube jacket temperature (°C),LED temperature (°C),Box temperature (°C),Sample RH (%),Span deviation,Mass concentration (μg/m³),Mass concentration (μg/m³),Mass concentration (μg/m³)
DateTimeUTC,F1_M11,P_M11,Q1_M11,Q2_M11,T1_M11,T2_M11,T3_M11,T4_M11,T5_M11,U1_M11,ZSPAN_M11,X0_M11,X2_M11,X1_M11
2022-04-14 08:00:00,,0822.3,5.00,0.00,22.4,21.6,00.0,31.5,24.0,06.3,0000.0,0006.03,0001.74,0001.06
2022-04-14 08:01:00,,0822.3,4.99,0.00,22.4,21.5,00.0,31.5,23.9,06.3,0000.0,0005.89,0001.71,0001.07
2022-04-14 08:02:00,,0822.3,5.00,0.00,22.3,21.3,00.0,31.4,23.9,06.4,0000.0,0004.95,0001.71,0001.08
2022-04-14 08:03:00,,0822.0,5.02,0.00,22.3,21.3,00.0,31.4,23.9,06.5,0000.0,0004.79,0001.71,0001.08
2022-04-14 08:04:00,,0822.1,5.00,0.00,22.2,21.2,00.0,31.4,23.9,06.0,0000.0,0004.66,0001.68,0001.09
2022-04-14 08:05:00,,0822.2,5.00,0.00,22.2,21.2,00.0,31.4,23.8,05.9,0000.0,0004.45,0001.61,0001.08
2022-04-14 08:06:00,,0822.3,4.99,0.00,22.2,21.1,00.0,31.4,23.8,06.2,0000.0,0004.34,0001.56,0001.08
2022-04-14 08:07:00,,0822.2,5.02,0.00,22.1,21.0,00.0,31.3,23.7,06.4,0000.0,0004.27,0001.53,0001.07
2022-04-14 08:08:00,,0822.2,5.00,0.00,22.2,21.4,00.0,31.3,23.9,06.3,0000.0,0004.23,0001.51,0001.07
2022-04-14 08:09:00,,0822.2,5.00,0.00,22.3,22.3,00.0,31.4,24.1,06.3,0000.0,0002.97,0001.45,0001.07
2022-04-14 08:10:00,,0822.1,5.00,0.00,22.5,23.1,00.0,31.4,24.4,06.2,0000.0,0002.74,0001.44,0001.07
2022-04-14 08:11:00,,0822.1,5.00,0.00,22.5,23.1,00.0,31.4,24.5,06.1,0000.0,0002.30,0001.45,0001.08
2022-04-14 08:12:00,,0822.1,4.99,0.00,22.5,22.8,00.0,31.4,24.4,06.1,0000.0,0002.69,0001.45,0001.09
2022-04-14 08:13:00,,0822.1,5.02,0.00,22.5,22.5,00.0,31.4,24.3,05.9,0000.0,0003.39,0001.45,0001.10
2022-04-14 08:14:00,,0822.1,4.99,0.00,22.5,22.2,00.0,31.4,24.2,06.0,0000.0,0003.58,0001.52,0001.11
2022-04-14 08:15:00,,0822.1,5.00,0.00,22.4,22.0,00.0,31.4,24.1,06.1,0000.0,0003.68,0001.56,0001.13
2022-04-14 08:16:00,,0822.1,5.00,0.00,22.4,21.8,00.0,31.4,24.1,06.1,0000.0,0003.76,0001.58,0001.13
2022-04-14 08:17:00,,0822.1,4.99,0.00,22.4,21.6,00.0,31.4,24.1,06.2,0000.0,0003.76,0001.58,0001.13
2022-04-14 08:18:00,,0822.0,5.00,0.00,22.3,21.5,00.0,31.4,24.0,06.2,0000.0,0003.80,0001.59,0001.14
2022-04-14 08:19:00,,0822.0,5.01,0.00,22.3,21.4,00.0,31.4,24.0,06.1,0000.0,0003.86,0001.61,0001.15
2022-04-14 08:20:00,,0822.0,5.00,0.00,22.3,21.3,00.0,31.4,23.9,06.0,0000.0,0004.14,0001.65,0001.16
2022-04-14 08:21:00,,0822.1,4.99,0.00,22.2,21.3,00.0,31.4,23.8,06.1,0000.0,0004.11,0001.61,0001.16
2022-04-14 08:22:00,,0822.1,5.01,0.00,22.2,21.1,00.0,31.3,23.8,06.1,0000.0,0004.05,0001.60,0001.15
2022-04-14 08:23:00,,0822.1,5.01,0.00,22.2,21.1,00.0,31.3,23.8,06.1,0000.0,0003.43,0001.57,0001.14
2022-04-14 08:24:00,,0822.0,5.00,0.00,22.2,21.1,00.0,31.3,23.8,06.2,0000.0,0003.04,0001.59,0001.15
2022-04-14 08:25:00,,0822.0,4.99,0.00,22.1,21.0,00.0,31.3,23.7,06.1,0000.0,0003.02,0001.60,0001.14
2022-04-14 08:26:00,,0822.0,5.00,0.00,22.2,21.3,00.0,31.3,23.8,06.3,0000.0,0003.12,0001.63,0001.13
2022-04-14 08:27:00,,0822.0,4.99,0.00,22.3,22.2,00.0,31.3,24.1,06.2,0000.0,0003.43,0001.67,0001.13
2022-04-14 08:28:00,,0821.9,5.01,0.00,22.4,23.0,00.0,31.4,24.4,06.1,0000.0,0003.49,0001.68,0001.13
2022-04-14 08:29:00,,0821.9,5.00,0.00,22.5,23.1,00.0,31.4,24.5,06.1,0000.0,0003.52,0001.70,0001.14
2022-04-14 08:30:00,,0821.9,4.99,0.00,22.5,22.7,00.0,31.4,24.4,06.0,0000.0,0003.44,0001.67,0001.13
2022-04-14 08:31:00,,0822.0,5.00,0.00,22.5,22.4,00.0,31.4,24.3,06.0,0000.0,0003.29,0001.67,0001.13
2022-04-14 08:32:00,,0822.0,5.00,0.00,22.5,22.2,00.0,31.4,24.2,06.0,0000.0,0003.28,0001.69,0001.14
2022-04-14 08:33:00,,0821.8,5.00,0.00,22.4,22.0,00.0,31.4,24.2,06.0,0000.0,0003.32,0001.74,0001.16
2022-04-14 08:34:00,,0821.8,5.00,0.00,22.4,21.8,00.0,31.4,24.1,06.0,0000.0,0003.41,0001.78,0001.16
2022-04-14 08:35:00,,0821.8,5.00,0.00,22.4,21.7,00.0,31.4,24.0,06.0,0000.0,0003.25,0001.79,0001.16
2022-04-14 08:36:00,,0822.2,5.01,0.00,22.3,21.5,00.0,31.4,23.9,06.0,0000.0,0003.71,0001.75,0001.16
2022-04-14 08:37:00,,0822.1,5.00,0.00,22.3,21.4,00.0,31.4,23.9,06.1,0000.0,0004.71,0001.73,0001.17
2022-04-14 08:38:00,,0821.8,5.00,0.00,22.3,21.4,00.0,31.4,23.9,06.1,0000.0,0004.39,0001.71,0001.17
2022-04-14 08:39:00,,0821.8,5.00,0.00,22.3,21.3,00.0,31.4,23.9,06.1,0000.0,0004.54,0001.76,0001.17
2022-04-14 08:40:00,,0821.8,5.00,0.00,22.2,21.2,00.0,31.3,23.9,06.1,0000.0,0004.66,0001.80,0001.17
2022-04-14 08:41:00,,0821.9,5.01,0.00,22.2,21.2,00.0,31.3,23.9,06.1,0000.0,0004.85,0001.86,0001.18
2022-04-14 08:42:00,,0821.8,5.00,0.00,22.2,21.2,00.0,31.3,23.9,06.1,0000.0,0004.88,0001.85,0001.18
2022-04-14 08:43:00,,0821.8,5.00,0.00,22.2,21.2,00.0,31.3,23.8,06.1,0000.0,0004.83,0001.83,0001.18
2022-04-14 08:44:00,,0821.8,4.99,0.00,22.2,21.4,00.0,31.3,23.9,06.2,0000.0,0004.94,0001.85,0001.17
2022-04-14 08:45:00,,0821.8,5.01,0.00,22.3,22.2,00.0,31.3,24.1,06.2,0000.0,0004.94,0001.85,0001.17
2022-04-14 08:46:00,,0821.8,5.00,0.00,22.4,23.0,00.0,31.4,24.4,06.1,0000.0,0005.05,0001.86,0001.17
2022-04-14 08:47:00,,0821.8,5.00,0.00,22.5,23.1,00.0,31.4,24.5,06.1,0000.0,0004.50,0001.84,0001.15
2022-04-14 08:48:00,,0821.8,5.00,0.00,22.5,22.9,00.0,31.4,24.4,06.1,0000.0,0003.33,0001.80,0001.15
2022-04-14 08:49:00,,0821.8,4.99,0.00,22.5,22.6,00.0,31.4,24.3,06.1,0000.0,0003.31,0001.78,0001.14
2022-04-14 08:50:00,,0821.8,5.00,0.00,22.5,22.3,00.0,31.4,24.3,06.1,0000.0,0003.33,0001.76,0001.15
2022-04-14 08:51:00,,0821.8,5.00,0.00,22.5,22.0,00.0,31.4,24.2,06.0,0000.0,0003.31,0001.72,0001.15
2022-04-14 08:52:00,,0821.7,5.00,0.00,22.4,21.8,00.0,31.4,24.2,06.1,0000.0,0003.12,0001.66,0001.15
2022-04-14 08:53:00,,0821.8,4.99,0.00,22.4,21.7,00.0,31.4,24.1,06.1,0000.0,0003.13,0001.67,0001.15
2022-04-14 08:54:00,,0821.8,5.00,0.00,22.4,21.6,00.0,31.4,24.0,06.1,0000.0,0003.31,0001.72,0001.16
2022-04-14 08:55:00,,0821.8,5.00,0.00,22.3,21.5,00.0,31.4,24.0,06.1,0000.0,0003.25,0001.69,0001.15
2022-04-14 08:56:00,,0821.7,5.00,0.00,22.3,21.4,00.0,31.4,23.9,06.1,0000.0,0003.15,0001.65,0001.14
2022-04-14 08:57:00,,0821.9,4.99,0.00,22.3,21.3,00.0,31.4,23.9,06.1,0000.0,0002.97,0001.61,0001.13
2022-04-14 08:58:00,,0821.9,5.01,0.00,22.3,21.2,00.0,31.4,23.9,06.1,0000.0,0002.96,0001.62,0001.14
2022-04-14 08:59:00,,0821.9,5.01,0.00,22.2,21.2,00.0,31.3,23.9,06.2,0000.0,0003.38,0001.65,0001.15
